STARLINK-11352, 62880

Orbit data source: Space-Track

STARLINK-11352, 62880 is a payload satellite owned by SpaceX/Seattle (US) in LEO that was launched on Tue, 04 Feb 2025 UTC via an FALCON 9 launch vehicle from the Air Force Eastern Test Range (AFETR). Payload-class satellites include a variety of spacecraft equipped with specific instruments for various scientific and technological missions. These include communications satellites like Starlink; space stations such as the ISS; scientific satellites like the Hubble; Earth observation satellites from companies like Planet Labs, Umbra, and HawkEye 360; GPS; miniature CubeSats for education and research; and military/defense satellites.

Loading next visibility...
Identifier
62880, 2025-024B
Orbit
LEO
Country
Flag of USUS
Related business
Manufacturer
SpaceX/Seattle
Mission
Operational spacecraft
Bus & Motor
STARLINK V2MD, Unknown motor
Mass
960 kg wet, ~910 kg dry
Launch date (UTC)
Icon of a cake. It is the launch day of the satellite!2025-02-04 (1 year ago)
Launch vehicle
FALCON 9
Launch site
Air Force Eastern Test Range (AFETR)
Object type
Payload
Rocket body
Debris
Shape & HBR
Unknown shape, 18.1 m
Radar Cross Section
Large (>1 m²)

Expand to show TLE details & history
Last TLE update: 18 hours ago

TLE from 18 hours ago
0 STARLINK-11352
1 62880U 25024B   26035.01914358  .00279872  00000-0  20936-2 0  9991
2 62880  42.9989  24.1847 0003207 285.4535  74.5979 15.71046702 58172
Epoch: 2026-02-04T00:27Z
TLE epoch observation values (Epoch: 2026-02-04T00:27:34.005Z)
Latitude
0.00003°
Longitude
-116.89869°
Altitude
355.102 km
Speed
7.698 km/s
True Right ascension
01h 36m 44s
True Declination
0° 00' 00"
Sunlit
Object was in daylight at epoch
Visualization orbit readout
Latitude
Unknown
Longitude
Unknown
Altitude
Unknown
Speed
Unknown
Apparent Right ascension
Unknown
Apparent Declination
Unknown
Sunlit
N/A
Visualization observer readout
Local Sidereal Time
20:15:30
Azimuth
Unknown
Elevation
Unknown
Doppler factor
Unknown
Orbital elements
Apogee altitude
360.047 km
Perigee altitude
355.726 km
Semi-major axis
6,736.023 km
Eccentricity
0.00032
Inclination
42.9989°
RAAN
24.1847°
Arg. of periapsis
285.4535°
True anomaly
74.63333°
Mean anomaly
74.5979°
Eccentric anomaly
74.61562°
Mean motion
3.92589 °/min
Orbital period
91.7 mins
BSTAR
0.0020936
Loading maneuver chart data...
Computing Atmospheric mass density...
Loading historical data...
Loading historical data...
Loading historical data...
Loading historical data...
Loading historical data...
Loading historical data...
Loading historical data...

Documentation

Showing up to 5 results
|